KZ1X Weather Reports


Display with metric or nautical units.
time (UTC)temp
F
wind
direction
speed
MPH
gust
MPH
rain 1hr
in
rain 24hr
in
rain mn
in
humidity
%
barometer
mb
20260901221609 87 0 0.0 0.0 0.00 0.00 0.00 66 1016.5
20260901220055 88 0 0.0 0.0 0.00 0.00 0.00 68 1016.5
20260901214550 89 0 0.0 2.0 0.00 0.00 0.00 66 1016.6
20260901213103 90 0 0.0 1.0 0.00 0.00 0.00 64 1016.6
20260901211547 91 0 0.0 1.0 0.00 0.00 0.00 63 1016.6
20260901210050 92 0 0.0 1.0 0.00 0.00 0.00 60 1016.8
20260901204600 93 0 0.0 3.0 0.00 0.00 0.00 60 1016.8
20260901203053 94 98 0.0 2.0 0.00 0.00 0.00 62 1016.9
20260901201552 94 214 0.0 2.0 0.00 0.00 0.00 56 1016.9
20260901200112 94 120 0.0 3.0 0.00 0.00 0.00 58 1017.2
20260901194556 93 0 0.0 5.0 0.00 0.00 0.00 59 1017.2
20260901193052 94 295 0.0 1.0 0.00 0.00 0.00 57 1017.4
20260901191623 94 57 0.0 2.0 0.00 0.00 0.00 57 1017.6
20260901190051 94 134 1.0 4.0 0.00 0.00 0.00 54 1018.0
20260901184543 94 0 0.0 5.0 0.00 0.00 0.00 58 1017.9
20260901183053 94 117 0.0 1.0 0.00 0.00 0.00 57 1018.0
20260901181611 94 154 1.0 5.0 0.00 0.00 0.00 57 1018.1
20260901180048 93 59 1.0 4.0 0.00 0.00 0.00 63 1018.2
20260901174546 93 0 1.0 4.0 0.00 0.00 0.00 61 1018.4
20260901173041 93 160 1.0 3.0 0.00 0.00 0.00 61 1018.4
20260901171559 93 61 1.0 4.0 0.00 0.00 0.00 61 1018.4
20260901170057 92 241 0.0 3.0 0.00 0.00 0.00 68 1018.5
20260901164550 91 84 0.0 4.0 0.00 0.00 0.00 67 1018.5
20260901163047 91 0 0.0 1.0 0.00 0.00 0.00 68 1018.8
20260901161552 90 167 0.0 2.0 0.00 0.00 0.00 69 1018.9
20260901160105 90 94 0.0 3.0 0.00 0.00 0.00 69 1019.3
20260901154550 89 0 0.0 1.0 0.00 0.00 0.00 71 1019.3
20260901153102 88 0 0.0 2.0 0.00 0.00 0.00 73 1019.6
20260901151548 86 101 0.0 1.0 0.00 0.00 0.00 75 1019.8
20260901150053 85 187 1.0 2.0 0.00 0.00 0.00 77 1019.8
20260901144550 84 0 0.0 2.0 0.00 0.00 0.00 82 1019.9
20260901143110 82 127 0.0 1.0 0.00 0.00 0.00 85 1019.9
20260901141547 81 0 0.0 1.0 0.00 0.00 0.00 88 1019.7
20260901140127 81 0 0.0 3.0 0.00 0.00 0.00 86 1019.7
20260901134545 79 0 0.0 2.0 0.00 0.00 0.00 90 1019.7
20260901133049 78 0 0.0 2.0 0.00 0.00 0.00 92 1019.6
20260901131546 76 0 0.0 1.0 0.00 0.00 0.00 94 1019.6
20260901130044 75 0 0.0 2.0 0.00 0.00 0.00 96 1019.6
20260901124555 73 0 0.0 0.0 0.00 0.00 0.00 97 1019.4
20260901123048 72 0 0.0 0.0 0.00 0.00 0.00 98 1019.5
20260901121546 72 0 0.0 0.0 0.00 0.00 0.00 98 1019.5
20260901120046 71 0 0.0 0.0 0.00 0.00 0.00 98 1019.4
20260901114550 71 0 0.0 0.0 0.00 0.00 0.00 98 1019.2
20260901113040 71 0 0.0 0.0 0.00 0.00 0.00 98 1019.0
20260901111551 71 0 0.0 0.0 0.00 0.00 0.00 98 1019.0
20260901110050 71 0 0.0 0.0 0.00 0.00 0.00 97 1018.8
20260901104546 71 0 0.0 0.0 0.00 0.00 0.00 97 1018.6
20260901103043 71 0 0.0 0.0 0.00 0.00 0.00 97 1018.5
20260901101558 71 0 0.0 0.0 0.00 0.00 0.00 97 1018.5
20260901100053 71 0 0.0 0.0 0.00 0.00 0.00 97 1018.5
20260901094547 71 0 0.0 0.0 0.00 0.00 0.00 97 1018.6
20260901093042 71 0 0.0 0.0 0.00 0.00 0.00 96 1018.5
20260901091555 71 0 0.0 0.0 0.00 0.00 0.00 96 1018.4
20260901090047 71 0 0.0 0.0 0.00 0.00 0.00 96 1018.5
20260901084542 71 0 0.0 0.0 0.00 0.00 0.00 96 1018.5
20260901083044 71 0 0.0 0.0 0.00 0.00 0.00 95 1018.7
20260901081553 71 0 0.0 0.0 0.00 0.00 0.00 95 1018.7
20260901080140 72 0 0.0 0.0 0.00 0.00 0.00 95 1018.9
20260901074546 72 0 0.0 0.0 0.00 0.00 0.00 95 1018.8
20260901073040 72 0 0.0 0.0 0.00 0.00 0.00 94 1019.0
20260901071548 72 0 0.0 0.0 0.00 0.00 0.00 94 1019.1
20260901070053 73 0 0.0 0.0 0.00 0.00 0.00 94 1019.2
20260901064542 73 0 0.0 0.0 0.00 0.00 0.00 93 1019.3
20260901063058 73 0 0.0 0.0 0.00 0.00 0.00 93 1019.4
20260901061601 73 0 0.0 0.0 0.00 0.00 0.00 92 1019.4
20260901060047 73 0 0.0 0.0 0.00 0.00 0.00 91 1019.3
20260901054550 73 0 0.0 0.0 0.00 0.00 0.00 91 1019.5
20260901053056 74 0 0.0 0.0 0.00 0.00 0.00 90 1019.4
20260901051546 74 0 0.0 0.0 0.00 0.00 0.00 91 1019.5
20260901050048 74 0 0.0 0.0 0.00 0.00 0.00 91 1019.5
20260901044601 73 0 0.0 0.0 0.00 0.00 0.00 92 1019.4
20260901043049 74 0 0.0 0.0 0.00 0.00 0.00 94 1019.4
20260901041547 74 0 0.0 0.0 0.00 0.00 0.00 95 1019.2
20260901040058 73 0 0.0 0.0 0.00 0.00 0.00 93 1019.4
20260901034551 73 0 0.0 0.0 0.00 0.00 0.00 93 1019.3
20260901033051 74 0 0.0 0.0 0.00 0.00 0.00 93 1019.2
20260901031550 74 0 0.0 0.0 0.00 0.00 0.00 92 1019.0
20260901030049 74 0 0.0 0.0 0.00 0.00 0.00 92 1019.1
20260901024559 74 0 0.0 0.0 0.00 0.00 0.00 93 1018.9
20260901023050 75 0 0.0 0.0 0.00 0.00 0.00 94 1018.9
20260901021604 75 0 0.0 0.0 0.00 0.00 0.00 94 1018.9
20260901020046 75 0 0.0 0.0 0.00 0.00 0.00 93 1018.8
20260901014542 76 0 0.0 0.0 0.00 0.00 0.00 93 1018.9
20260901013049 76 0 0.0 0.0 0.00 0.00 0.00 92 1018.8
20260901011547 77 0 0.0 0.0 0.00 0.00 0.00 92 1018.7
20260901010051 77 0 0.0 0.0 0.00 0.00 0.00 91 1018.3
20260901004550 78 0 0.0 0.0 0.00 0.00 0.00 89 1018.0
20260901003043 78 0 0.0 0.0 0.00 0.00 0.00 88 1018.2
20260901001548 79 0 0.0 0.0 0.00 0.00 0.00 85 1018.1
20260901000045 80 0 0.0 0.0 0.00 0.00 0.00 83 1018.0
20260831234544 81 0 0.0 0.0 0.00 0.00 0.00 81 1017.9
20260831233048 82 0 0.0 0.0 0.00 0.00 0.00 78 1018.0
20260831231557 83 0 0.0 0.0 0.00 0.00 0.00 75 1018.0
20260831230046 84 0 0.0 0.0 0.00 0.00 0.00 74 1017.8
20260831224619 84 0 0.0 0.0 0.00 0.00 0.00 74 1017.7
20260831223048 85 0 0.0 0.0 0.00 0.00 0.00 74 1017.9